Volver al catálogo

STARLINK-37658

ActivoComunicacionesSSO
NORAD 69138·PAYLOAD·🇺🇸 United States

Lanzado May 20, 2026 desde Vandenberg Space Force Base

Loading…

Próximos Pases (próximas 24 horas)

TLE

ActualizadoSource: CelesTrak SupGP

Época: Sep 15, 2026, 02:51 UTC

1 69138C 26110Q   26258.11923611 -.00048514  00000+0 -15067-2 0  2586
2 69138  97.2850  93.2701 0001792  93.2238 233.3425 15.33447282    10

Sigue STARLINK-37658 en tiempo real con AllMySat

Download on the App Store